AIC129 VABB-EGLL

Flight info

Callsign AIC129
Flight time N/A
Altitude 38000
Route ANOL2AXISRIS/27 ISRIS G208 APANO G451 AAE Z8 VIKIT P628 RK G202 ZB/N0493F370 G325 REGET/N0496F380 N644 LEMOD A909 ABDAN/N0485F400 A909 RODAR M11 ERLEV L850 ADEKI N644 TETRO M10 SARPI UM10 GOKPA UL746 ODERO DCT OPT DCT SOKRU DCT DEGET DCT BEGLA DCT DEXIT DCT INBED DCT BOMBI DCT ADKUV DCT LENDO DCT DENUT L608 LOGAN
Aircraft A359/H-SDE2E3GHIJ3J4J5LM1ORWXY/LB1D1

Departure

Time 2026-04-28 13:44
Airport Chhatrapati Shivaji Maharaj International Airport (VABB)

Arrival

Time N/A
Airport London Heathrow Airport (EGLL)
Time Latitude Longitude Altitude Speed Heading
2026-04-28 13:17 19.09480 72.87073 45 ft 0 kts 139°
2026-04-28 13:32 19.09480 72.87072 45 ft 0 kts 139°
2026-04-28 13:33 19.09483 72.87070 45 ft 0 kts 139°
2026-04-28 13:33 19.09492 72.87061 45 ft 2 kts 139°
2026-04-28 13:33 19.09509 72.87046 45 ft 3 kts 139°
2026-04-28 13:34 19.09526 72.87031 45 ft 3 kts 143°
2026-04-28 13:34 19.09537 72.87023 45 ft 2 kts 157°
2026-04-28 13:34 19.09552 72.87022 45 ft 1 kts 210°
2026-04-28 13:34 19.09555 72.87023 45 ft 0 kts 223°
2026-04-28 13:35 19.09554 72.87022 45 ft 0 kts 223°
2026-04-28 13:38 19.09553 72.87022 45 ft 0 kts 223°
2026-04-28 13:38 19.09548 72.87016 45 ft 1 kts 222°
2026-04-28 13:38 19.09539 72.87008 45 ft 1 kts 222°
2026-04-28 13:38 19.09532 72.87001 45 ft 2 kts 222°
2026-04-28 13:39 19.09512 72.86982 45 ft 3 kts 223°
2026-04-28 13:39 19.09483 72.86952 45 ft 8 kts 225°
2026-04-28 13:39 19.09435 72.86895 43 ft 13 kts 227°
2026-04-28 13:39 19.09351 72.86889 44 ft 15 kts 133°
2026-04-28 13:40 19.09265 72.86983 42 ft 20 kts 135°
2026-04-28 13:40 19.09234 72.87126 39 ft 21 kts 88°
2026-04-28 13:40 19.09217 72.87272 39 ft 19 kts 139°
2026-04-28 13:40 19.09081 72.87272 33 ft 12 kts 172°
2026-04-28 13:41 19.09051 72.87306 32 ft 5 kts 94°
2026-04-28 13:41 19.09049 72.87354 32 ft 7 kts 91°
2026-04-28 13:41 19.09050 72.87418 33 ft 10 kts 89°
2026-04-28 13:41 19.09051 72.87504 33 ft 13 kts 89°
2026-04-28 13:42 19.09053 72.87611 34 ft 15 kts 89°
2026-04-28 13:42 19.09055 72.87730 37 ft 16 kts 89°
2026-04-28 13:42 19.09057 72.87852 38 ft 16 kts 89°
2026-04-28 13:42 19.09058 72.87966 42 ft 14 kts 89°
2026-04-28 13:43 19.09049 72.88038 44 ft 7 kts 127°
2026-04-28 13:43 19.09005 72.88055 45 ft 6 kts 173°
2026-04-28 13:43 19.08948 72.88049 45 ft 11 kts 194°
2026-04-28 13:43 19.08887 72.87971 43 ft 18 kts 266°
2026-04-28 13:44 19.08885 72.87717 37 ft 66 kts 269°
2026-04-28 13:44 19.08874 72.86981 32 ft 132 kts 269°
2026-04-28 13:44 19.08854 72.85842 209 ft 167 kts 268°
2026-04-28 13:44 19.08816 72.84598 842 ft 172 kts 269°
2026-04-28 13:45 19.08809 72.83330 1508 ft 177 kts 271°
2026-04-28 13:45 19.08799 72.82049 2137 ft 175 kts 271°
2026-04-28 13:45 19.08789 72.80723 2427 ft 187 kts 271°
2026-04-28 13:45 19.08780 72.79304 2731 ft 197 kts 271°
2026-04-28 13:46 19.08772 72.77817 3087 ft 205 kts 271°
2026-04-28 13:46 19.08768 72.76286 3477 ft 212 kts 271°
2026-04-28 13:46 19.08765 72.74709 3893 ft 218 kts 271°
2026-04-28 13:46 19.08764 72.73101 4328 ft 223 kts 271°
2026-04-28 13:47 19.08769 72.71461 4767 ft 227 kts 274°
2026-04-28 13:47 19.09232 72.69831 4988 ft 240 kts 310°
2026-04-28 13:47 19.10604 72.68838 5258 ft 253 kts 347°
2026-04-28 13:47 19.12396 72.68932 5549 ft 269 kts 22°
2026-04-28 13:48 19.13899 72.70104 6016 ft 278 kts 49°
2026-04-28 13:48 19.14919 72.71839 6651 ft 281 kts 66°
2026-04-28 13:48 19.15768 72.73680 7273 ft 282 kts 51°
2026-04-28 13:48 19.17291 72.74923 7842 ft 283 kts 19°
2026-04-28 13:49 19.19214 72.75140 8441 ft 284 kts 354°
2026-04-28 13:49 19.21163 72.74822 9039 ft 287 kts 351°
2026-04-28 13:49 19.23138 72.74506 9595 ft 291 kts 353°
2026-04-28 13:49 19.24475 72.74345 9970 ft 293 kts 355°
2026-04-28 13:50 19.27255 72.74109 10409 ft 310 kts 357°
2026-04-28 13:50 19.29463 72.74052 10684 ft 323 kts
2026-04-28 13:50 19.30966 72.74125 10861 ft 332 kts
2026-04-28 13:50 19.34063 72.74518 11361 ft 345 kts
2026-04-28 13:51 19.36443 72.74885 11918 ft 348 kts
2026-04-28 13:51 19.38050 72.75137 12304 ft 350 kts
2026-04-28 13:51 19.41267 72.75639 13056 ft 354 kts
2026-04-28 13:51 19.43684 72.76013 13605 ft 357 kts
2026-04-28 13:52 19.45308 72.76264 13966 ft 359 kts
2026-04-28 13:52 19.48622 72.76775 14681 ft 362 kts
2026-04-28 13:52 19.50283 72.77030 15030 ft 364 kts
2026-04-28 13:52 19.52810 72.77419 15551 ft 367 kts
2026-04-28 13:53 19.56182 72.77938 16233 ft 371 kts
2026-04-28 13:53 19.58748 72.78333 16740 ft 374 kts
2026-04-28 13:53 19.60454 72.78596 17071 ft 376 kts
2026-04-28 13:53 19.63895 72.79125 17725 ft 380 kts
2026-04-28 13:54 19.66528 72.79530 18213 ft 383 kts
2026-04-28 13:54 19.68275 72.79800 18531 ft 385 kts
2026-04-28 13:54 19.71803 72.80343 19160 ft 388 kts
2026-04-28 13:54 19.74503 72.80759 19628 ft 391 kts
2026-04-28 13:55 19.76273 72.81033 19928 ft 393 kts
2026-04-28 13:55 19.79894 72.81591 20529 ft 397 kts
2026-04-28 13:55 19.81715 72.81872 20824 ft 399 kts
2026-04-28 13:55 19.85384 72.82439 21405 ft 402 kts
2026-04-28 13:56 19.88141 72.82864 21828 ft 405 kts
2026-04-28 13:56 19.90920 72.83293 22244 ft 408 kts
2026-04-28 13:56 19.93724 72.83727 22654 ft 410 kts
2026-04-28 13:56 19.96577 72.84167 23062 ft 413 kts
2026-04-28 13:57 19.99397 72.84603 23452 ft 415 kts
2026-04-28 13:57 20.02274 72.85048 23837 ft 418 kts
2026-04-28 13:57 20.05125 72.85489 24202 ft 420 kts
2026-04-28 13:57 20.08046 72.85941 24561 ft 423 kts
2026-04-28 13:58 20.10947 72.86351 24906 ft 426 kts
2026-04-28 13:58 20.13898 72.86726 25243 ft 428 kts
2026-04-28 13:58 20.16853 72.87094 25570 ft 430 kts
2026-04-28 13:58 20.19796 72.87462 25890 ft 433 kts
2026-04-28 13:59 20.22801 72.87840 26214 ft 434 kts